User: anonymous   Login
Location: Strawberry
(45.6646°N, 111.9596°W)
Time: 10:09:48
(UTC+00:00)
Language:

CUTE-I - Orbit

View from above orbital plane
View from above orbital plane
View from above satellite
View from above satellite

Ground track
Ground track

The orbit data is extracted from the following two-line orbital elements,

1 27844U 03031E   22329.57279294  .00000226  00000-0  12085-3 0  9994
2 27844  98.6796 334.8460 0009802   2.0637 358.0580 14.22545728  6787
Epoch (UTC): 25 November 2022 13:44:49
Eccentricity: 0.0009802
inclination: 98.6796°
perigee height: 810 km
apogee height: 824 km
right ascension of ascending node: 334.8460°
argument of perigee: 2.0637°
revolutions per day: 14.22545728
mean anomaly at epoch: 358.0580°
orbit number at epoch: 678

The dashed part of the orbit path shows where the satellite is in the earth's shadow,  

DLR